| time (UTC) | temp F | wind direction | speed MPH | gust MPH | rain 1hr in | rain 24hr in | rain mn in | humidity % | barometer mb |
| 20260902030056 | 77 | 192 | 1.0 | 3.0 | 0.00 | 0.00 | 0.00 | 91 | 1011.2 |
| 20260902025859 | 77 | 191 | 1.0 | 5.0 | 0.00 | 0.00 | 0.00 | 91 | 1010.9 |
| 20260902025051 | 77 | 153 | 1.0 | 5.0 | 0.00 | 0.00 | 0.00 | 91 | 1010.9 |
| 20260902024537 | 78 | 200 | 1.0 | 3.0 | 0.00 | 0.00 | 0.00 | 91 | 1010.9 |
| 20260902024038 | 78 | 205 | 1.0 | 3.0 | 0.00 | 0.00 | 0.00 | 90 | 1011.1 |
| 20260902023533 | 78 | 201 | 1.0 | 3.0 | 0.00 | 0.00 | 0.00 | 90 | 1011.1 |
| 20260902023027 | 78 | 202 | 1.0 | 3.0 | 0.00 | 0.00 | 0.00 | 90 | 1011.1 |
| 20260902022518 | 78 | 138 | 1.0 | 4.0 | 0.00 | 0.00 | 0.00 | 90 | 1011.2 |
| 20260902022016 | 78 | 209 | 1.0 | 4.0 | 0.00 | 0.00 | 0.00 | 90 | 1011.2 |
| 20260902021503 | 78 | 186 | 2.0 | 6.0 | 0.00 | 0.00 | 0.00 | 89 | 1011.2 |
| 20260902021309 | 78 | 188 | 1.0 | 6.0 | 0.00 | 0.00 | 0.00 | 89 | 1011.2 |
| 20260902020502 | 78 | 206 | 1.0 | 4.0 | 0.00 | 0.00 | 0.00 | 89 | 1011.2 |
| 20260902020303 | 78 | 208 | 1.0 | 4.0 | 0.00 | 0.00 | 0.00 | 88 | 1010.9 |
| 20260902015812 | 78 | 190 | 1.0 | 3.0 | 0.00 | 0.00 | 0.00 | 88 | 1010.9 |
| 20260902015105 | 78 | 176 | 0.0 | 1.0 | 0.00 | 0.00 | 0.00 | 87 | 1010.7 |
| 20260902015043 | 78 | 177 | 0.0 | 2.0 | 0.00 | 0.00 | 0.00 | 87 | 1010.9 |
| 20260902013944 | 79 | 182 | 0.0 | 0.0 | 0.00 | 0.00 | 0.00 | 86 | 1010.8 |
| 20260902013439 | 79 | 182 | 0.0 | 0.0 | 0.00 | 0.00 | 0.00 | 86 | 1010.8 |
| 20260902012935 | 79 | 182 | 0.0 | 0.0 | 0.00 | 0.00 | 0.00 | 86 | 1010.7 |
| 20260902012418 | 79 | 182 | 1.0 | 3.0 | 0.00 | 0.00 | 0.00 | 86 | 1010.7 |
| 20260902011911 | 79 | 182 | 1.0 | 3.0 | 0.00 | 0.00 | 0.00 | 85 | 1010.7 |
| 20260902011405 | 79 | 215 | 1.0 | 2.0 | 0.00 | 0.00 | 0.00 | 85 | 1010.7 |
| 20260902010851 | 80 | 197 | 1.0 | 2.0 | 0.00 | 0.00 | 0.00 | 84 | 1010.7 |
| 20260902010340 | 80 | 196 | 1.0 | 2.0 | 0.00 | 0.00 | 0.00 | 84 | 1010.7 |
| 20260902010154 | 80 | 186 | 0.0 | 2.0 | 0.00 | 0.00 | 0.00 | 83 | 1010.7 |
| 20260902005319 | 80 | 186 | 1.0 | 3.0 | 0.00 | 0.00 | 0.00 | 83 | 1010.8 |
| 20260902004809 | 80 | 186 | 1.0 | 3.0 | 0.00 | 0.00 | 0.00 | 82 | 1010.8 |
| 20260902004303 | 81 | 217 | 1.0 | 3.0 | 0.00 | 0.00 | 0.00 | 81 | 1010.8 |
| 20260902003803 | 81 | 217 | 1.0 | 5.0 | 0.00 | 0.00 | 0.00 | 81 | 1010.8 |
| 20260902003259 | 81 | 263 | 2.0 | 6.0 | 0.00 | 0.00 | 0.00 | 80 | 1010.8 |
| 20260902002749 | 82 | 196 | 1.0 | 6.0 | 0.00 | 0.00 | 0.00 | 80 | 1010.8 |
| 20260902002240 | 82 | 242 | 2.0 | 5.0 | 0.00 | 0.00 | 0.00 | 79 | 1010.9 |
| 20260902002031 | 82 | 241 | 1.0 | 5.0 | 0.00 | 0.00 | 0.00 | 79 | 1010.9 |
| 20260902001230 | 82 | 202 | 1.0 | 5.0 | 0.00 | 0.00 | 0.00 | 78 | 1010.9 |
| 20260902000712 | 83 | 209 | 1.0 | 5.0 | 0.00 | 0.00 | 0.00 | 78 | 1010.9 |
| 20260902000211 | 83 | 206 | 1.0 | 4.0 | 0.00 | 0.00 | 0.00 | 77 | 1010.9 |
| 20260901235756 | 83 | 217 | 1.0 | 3.0 | 0.00 | 0.00 | 0.00 | 77 | 1010.8 |
| 20260901235020 | 84 | 223 | 2.0 | 7.0 | 0.00 | 0.00 | 0.00 | 76 | 1010.9 |
| 20260901234200 | 84 | 209 | 2.0 | 7.0 | 0.00 | 0.00 | 0.00 | 75 | 1011.0 |
| 20260901233702 | 84 | 207 | 2.0 | 6.0 | 0.00 | 0.00 | 0.00 | 75 | 1011.0 |
| 20260901233201 | 84 | 209 | 2.0 | 6.0 | 0.00 | 0.00 | 0.00 | 74 | 1011.0 |
| 20260901233011 | 85 | 184 | 2.0 | 7.0 | 0.00 | 0.00 | 0.00 | 73 | 1011.0 |
| 20260901232152 | 85 | 192 | 3.0 | 11.0 | 0.00 | 0.00 | 0.00 | 72 | 1011.1 |
| 20260901231652 | 86 | 200 | 3.0 | 11.0 | 0.00 | 0.00 | 0.00 | 71 | 1011.1 |
| 20260901231148 | 87 | 215 | 3.0 | 11.0 | 0.00 | 0.00 | 0.00 | 70 | 1011.1 |
| 20260901230642 | 87 | 225 | 3.0 | 8.0 | 0.00 | 0.00 | 0.00 | 68 | 1011.1 |
| 20260901230145 | 87 | 269 | 3.0 | 8.0 | 0.00 | 0.00 | 0.00 | 68 | 1011.1 |
| 20260901225635 | 87 | 270 | 3.0 | 7.0 | 0.00 | 0.00 | 0.00 | 68 | 1011.1 |
| 20260901225131 | 87 | 239 | 3.0 | 7.0 | 0.00 | 0.00 | 0.00 | 67 | 1011.1 |
| 20260901224634 | 87 | 238 | 3.0 | 7.0 | 0.00 | 0.00 | 0.00 | 66 | 1011.1 |
| 20260901224438 | 88 | 203 | 3.0 | 9.0 | 0.00 | 0.00 | 0.00 | 66 | 1011.1 |
| 20260901223613 | 88 | 265 | 3.0 | 9.0 | 0.00 | 0.00 | 0.00 | 65 | 1011.1 |
| 20260901223111 | 88 | 192 | 3.0 | 6.0 | 0.00 | 0.00 | 0.00 | 65 | 1011.1 |
| 20260901222607 | 88 | 194 | 4.0 | 11.0 | 0.00 | 0.00 | 0.00 | 65 | 1011.1 |
| 20260901222105 | 88 | 213 | 4.0 | 11.0 | 0.00 | 0.00 | 0.00 | 65 | 1011.1 |
| 20260901221605 | 89 | 222 | 3.0 | 7.0 | 0.00 | 0.00 | 0.00 | 64 | 1011.2 |
| 20260901221102 | 89 | 225 | 3.0 | 7.0 | 0.00 | 0.00 | 0.00 | 64 | 1011.0 |
| 20260901220603 | 89 | 287 | 3.0 | 8.0 | 0.00 | 0.00 | 0.00 | 64 | 1011.0 |
| 20260901220112 | 89 | 202 | 3.0 | 8.0 | 0.00 | 0.00 | 0.00 | 65 | 1011.0 |
| 20260901215558 | 89 | 184 | 3.0 | 7.0 | 0.00 | 0.00 | 0.00 | 63 | 1010.9 |
| 20260901215058 | 89 | 219 | 2.0 | 6.0 | 0.00 | 0.00 | 0.00 | 63 | 1010.9 |
| 20260901214917 | 89 | 263 | 2.0 | 4.0 | 0.00 | 0.00 | 0.00 | 64 | 1010.9 |
| 20260901214058 | 89 | 202 | 2.0 | 4.0 | 0.00 | 0.00 | 0.00 | 64 | 1010.8 |
| 20260901213745 | 89 | 294 | 3.0 | 8.0 | 0.00 | 0.00 | 0.00 | 62 | 1010.8 |
| 20260901213704 | 89 | 148 | 3.0 | 8.0 | 0.00 | 0.00 | 0.00 | 63 | 1010.8 |
| 20260901212749 | 89 | 238 | 3.0 | 8.0 | 0.00 | 0.00 | 0.00 | 63 | 1010.8 |
| 20260901212703 | 89 | 242 | 3.0 | 8.0 | 0.00 | 0.00 | 0.00 | 64 | 1010.8 |
| 20260901211559 | 89 | 197 | 3.0 | 11.0 | 0.00 | 0.00 | 0.00 | 64 | 1010.8 |
| 20260901211412 | 89 | 208 | 3.0 | 11.0 | 0.00 | 0.00 | 0.00 | 63 | 1010.8 |
| 20260901210552 | 89 | 212 | 3.0 | 7.0 | 0.00 | 0.00 | 0.00 | 65 | 1010.8 |
| 20260901210430 | 88 | 156 | 2.0 | 7.0 | 0.00 | 0.00 | 0.00 | 65 | 1010.8 |
| 20260901205907 | 88 | 219 | 1.0 | 4.0 | 0.00 | 0.00 | 0.00 | 64 | 1010.9 |
| 20260901205042 | 88 | 255 | 2.0 | 7.0 | 0.00 | 0.00 | 0.00 | 64 | 1010.9 |
| 20260901204535 | 88 | 254 | 2.0 | 7.0 | 0.00 | 0.00 | 0.00 | 64 | 1010.9 |
| 20260901204032 | 89 | 205 | 2.0 | 5.0 | 0.00 | 0.00 | 0.00 | 62 | 1011.0 |
| 20260901203522 | 89 | 207 | 2.0 | 7.0 | 0.00 | 0.00 | 0.00 | 62 | 1011.0 |
| 20260901203020 | 89 | 279 | 2.0 | 7.0 | 0.00 | 0.00 | 0.00 | 61 | 1011.0 |
| 20260901202515 | 89 | 315 | 3.0 | 6.0 | 0.00 | 0.00 | 0.00 | 62 | 1011.1 |
| 20260901202200 | 89 | 257 | 2.0 | 5.0 | 0.00 | 0.00 | 0.00 | 62 | 1011.0 |
| 20260901202119 | 89 | 287 | 3.0 | 6.0 | 0.00 | 0.00 | 0.00 | 61 | 1011.1 |
| 20260901201007 | 89 | 283 | 2.0 | 5.0 | 0.00 | 0.00 | 0.00 | 62 | 1011.0 |
| 20260901200822 | 89 | 257 | 2.0 | 5.0 | 0.00 | 0.00 | 0.00 | 61 | 1011.0 |
| 20260901200335 | 89 | 196 | 2.0 | 5.0 | 0.00 | 0.00 | 0.00 | 62 | 1011.3 |
| 20260901195505 | 89 | 207 | 1.0 | 5.0 | 0.00 | 0.00 | 0.00 | 61 | 1011.3 |
| 20260901195005 | 89 | 209 | 2.0 | 5.0 | 0.00 | 0.00 | 0.00 | 64 | 1011.3 |
| 20260901194502 | 89 | 294 | 2.0 | 5.0 | 0.00 | 0.00 | 0.00 | 62 | 1011.3 |
| 20260901194326 | 90 | 215 | 2.0 | 5.0 | 0.00 | 0.00 | 0.00 | 61 | 1011.3 |
| 20260901193505 | 90 | 247 | 3.0 | 6.0 | 0.00 | 0.00 | 0.00 | 61 | 1011.3 |
| 20260901193001 | 89 | 206 | 4.0 | 8.0 | 0.00 | 0.00 | 0.00 | 61 | 1011.3 |
| 20260901192515 | 89 | 198 | 3.0 | 8.0 | 0.00 | 0.00 | 0.00 | 61 | 1011.3 |
| 20260901191958 | 89 | 264 | 3.0 | 7.0 | 0.00 | 0.00 | 0.00 | 61 | 1011.3 |
| 20260901191457 | 89 | 229 | 3.0 | 7.0 | 0.00 | 0.00 | 0.00 | 63 | 1011.4 |
| 20260901190958 | 89 | 229 | 3.0 | 7.0 | 0.00 | 0.00 | 0.00 | 63 | 1011.4 |
| 20260901190457 | 89 | 282 | 3.0 | 7.0 | 0.00 | 0.00 | 0.00 | 63 | 1011.4 |
| 20260901185956 | 89 | 284 | 3.0 | 8.0 | 0.00 | 0.00 | 0.00 | 64 | 1011.4 |
| 20260901185448 | 90 | 272 | 3.0 | 8.0 | 0.00 | 0.00 | 0.00 | 66 | 1011.4 |
| 20260901184949 | 89 | 244 | 3.0 | 6.0 | 0.00 | 0.00 | 0.00 | 66 | 1011.4 |
| 20260901184448 | 89 | 259 | 3.0 | 6.0 | 0.00 | 0.00 | 0.00 | 66 | 1011.4 |
| 20260901183948 | 88 | 243 | 3.0 | 9.0 | 0.00 | 0.00 | 0.00 | 66 | 1011.3 |
| 20260901183629 | 87 | 268 | 2.0 | 6.0 | 0.00 | 0.00 | 0.00 | 67 | 1011.4 |
| 20260901183548 | 88 | 267 | 3.0 | 9.0 | 0.00 | 0.00 | 0.00 | 66 | 1011.3 |
| 20260901182431 | 87 | 283 | 2.0 | 6.0 | 0.00 | 0.00 | 0.00 | 66 | 1011.4 |
| 20260901181928 | 87 | 182 | 2.0 | 6.0 | 0.00 | 0.00 | 0.00 | 68 | 1011.4 |
| 20260901181422 | 87 | 248 | 2.0 | 4.0 | 0.00 | 0.00 | 0.00 | 67 | 1011.3 |
| 20260901180924 | 87 | 277 | 2.0 | 5.0 | 0.00 | 0.00 | 0.00 | 69 | 1011.4 |
| 20260901180732 | 87 | 273 | 2.0 | 6.0 | 0.00 | 0.00 | 0.00 | 67 | 1011.4 |
| 20260901175911 | 87 | 215 | 2.0 | 6.0 | 0.00 | 0.00 | 0.00 | 68 | 1011.5 |
| 20260901175411 | 87 | 286 | 2.0 | 6.0 | 0.00 | 0.00 | 0.00 | 69 | 1011.5 |
| 20260901174910 | 88 | 264 | 2.0 | 6.0 | 0.00 | 0.00 | 0.00 | 69 | 1011.5 |
| 20260901174404 | 88 | 294 | 2.0 | 5.0 | 0.00 | 0.00 | 0.00 | 68 | 1011.5 |
| 20260901173903 | 88 | 276 | 3.0 | 6.0 | 0.00 | 0.00 | 0.00 | 70 | 1011.6 |
| 20260901173542 | 87 | 198 | 2.0 | 7.0 | 0.00 | 0.00 | 0.00 | 71 | 1011.8 |
| 20260901173506 | 87 | 221 | 3.0 | 7.0 | 0.00 | 0.00 | 0.00 | 71 | 1011.5 |
| 20260901172349 | 87 | 254 | 1.0 | 6.0 | 0.00 | 0.00 | 0.00 | 73 | 1011.8 |
| 20260901171846 | 87 | 294 | 2.0 | 5.0 | 0.00 | 0.00 | 0.00 | 71 | 1011.7 |
| 20260901171340 | 87 | 263 | 2.0 | 5.0 | 0.00 | 0.00 | 0.00 | 72 | 1011.8 |
| 20260901170836 | 86 | 258 | 2.0 | 6.0 | 0.00 | 0.00 | 0.00 | 73 | 1011.8 |
| 20260901170327 | 86 | 276 | 2.0 | 6.0 | 0.00 | 0.00 | 0.00 | 74 | 1011.8 |
| 20260901165819 | 85 | 219 | 2.0 | 5.0 | 0.00 | 0.00 | 0.00 | 75 | 1011.8 |
| 20260901165638 | 85 | 273 | 3.0 | 5.0 | 0.00 | 0.00 | 0.00 | 74 | 1011.7 |
| 20260901164812 | 85 | 213 | 3.0 | 8.0 | 0.00 | 0.00 | 0.00 | 74 | 1011.7 |
| 20260901164310 | 85 | 214 | 3.0 | 8.0 | 0.00 | 0.00 | 0.00 | 76 | 1011.7 |
| 20260901164135 | 85 | 277 | 2.0 | 5.0 | 0.00 | 0.00 | 0.00 | 76 | 1011.7 |
| 20260901163306 | 84 | 220 | 3.0 | 8.0 | 0.00 | 0.00 | 0.00 | 78 | 1011.7 |
| 20260901162817 | 84 | 164 | 4.0 | 8.0 | 0.00 | 0.00 | 0.00 | 78 | 1011.8 |
| 20260901162256 | 83 | 186 | 4.0 | 8.0 | 0.00 | 0.00 | 0.00 | 79 | 1011.7 |
| 20260901162115 | 83 | 188 | 4.0 | 8.0 | 0.00 | 0.00 | 0.00 | 81 | 1011.7 |
| 20260901161253 | 83 | 163 | 4.0 | 9.0 | 0.00 | 0.00 | 0.00 | 81 | 1011.7 |
| 20260901160750 | 82 | 175 | 4.0 | 9.0 | 0.00 | 0.00 | 0.00 | 81 | 1011.7 |
| 20260901160619 | 82 | 215 | 4.0 | 8.0 | 0.00 | 0.00 | 0.00 | 81 | 1011.7 |
| 20260901155752 | 82 | 84 | 4.0 | 8.0 | 0.00 | 0.00 | 0.00 | 82 | 1011.8 |
| 20260901155249 | 81 | 200 | 4.0 | 9.0 | 0.00 | 0.00 | 0.00 | 83 | 1011.8 |
| 20260901154753 | 81 | 198 | 4.0 | 9.0 | 0.00 | 0.00 | 0.00 | 83 | 1011.8 |
| 20260901154251 | 81 | 197 | 3.0 | 7.0 | 0.00 | 0.00 | 0.00 | 84 | 1011.7 |
| 20260901154119 | 81 | 219 | 3.0 | 7.0 | 0.00 | 0.00 | 0.00 | 85 | 1011.7 |
| 20260901153251 | 81 | 218 | 2.0 | 6.0 | 0.00 | 0.00 | 0.00 | 84 | 1011.7 |
| 20260901152749 | 81 | 153 | 2.0 | 4.0 | 0.00 | 0.00 | 0.00 | 85 | 1011.8 |
| 20260901152246 | 80 | 109 | 1.0 | 6.0 | 0.00 | 0.00 | 0.00 | 85 | 1011.8 |
| 20260901151745 | 80 | 191 | 1.0 | 6.0 | 0.00 | 0.00 | 0.00 | 87 | 1011.8 |
| 20260901151253 | 79 | 121 | 2.0 | 5.0 | 0.00 | 0.00 | 0.00 | 88 | 1011.9 |
| 20260901150732 | 78 | 152 | 2.0 | 5.0 | 0.00 | 0.00 | 0.00 | 90 | 1011.9 |
| 20260901150216 | 78 | 37 | 2.0 | 5.0 | 0.00 | 0.00 | 0.00 | 91 | 1011.9 |
| 20260901145708 | 77 | 96 | 2.0 | 5.0 | 0.00 | 0.00 | 0.00 | 92 | 1011.8 |
| 20260901145209 | 76 | 51 | 1.0 | 3.0 | 0.00 | 0.00 | 0.00 | 94 | 1011.8 |
| 20260901144704 | 76 | 186 | 0.0 | 0.0 | 0.00 | 0.00 | 0.00 | 96 | 1011.7 |
| 20260901144154 | 75 | 186 | 0.0 | 0.0 | 0.00 | 0.00 | 0.00 | 97 | 1011.8 |
| 20260901143947 | 74 | 186 | 0.0 | 0.0 | 0.00 | 0.00 | 0.00 | 97 | 1011.7 |
| 20260901143612 | 73 | 186 | 0.0 | 0.0 | 0.00 | 0.00 | 0.00 | 98 | 1011.7 |
| 20260901143605 | 74 | 186 | 0.0 | 0.0 | 0.00 | 0.00 | 0.00 | 98 | 1011.7 |
| 20260901142135 | 73 | 159 | 0.0 | 0.0 | 0.00 | 0.00 | 0.00 | 97 | 1011.6 |
| 20260901141627 | 72 | 159 | 0.0 | 0.0 | 0.00 | 0.00 | 0.00 | 97 | 1011.6 |
| 20260901141114 | 72 | 159 | 0.0 | 0.0 | 0.00 | 0.00 | 0.00 | 97 | 1011.5 |
| 20260901140619 | 71 | 157 | 0.0 | 0.0 | 0.00 | 0.00 | 0.00 | 97 | 1011.5 |
| 20260901140110 | 71 | 157 | 0.0 | 0.0 | 0.00 | 0.00 | 0.00 | 97 | 1011.5 |
| 20260901135547 | 71 | 157 | 0.0 | 0.0 | 0.00 | 0.00 | 0.00 | 97 | 1011.6 |
| 20260901135311 | 71 | 157 | 0.0 | 0.0 | 0.00 | 0.04 | 0.00 | 97 | 1011.6 |
| 20260901134509 | 71 | 157 | 0.0 | 0.0 | 0.00 | 0.12 | 0.00 | 97 | 1011.6 |
| 20260901134009 | 71 | 157 | 0.0 | 0.0 | 0.00 | 0.19 | 0.00 | 97 | 1011.6 |
| 20260901133626 | 71 | 157 | 0.0 | 0.0 | 0.00 | 0.19 | 0.00 | 97 | 1011.5 |
| 20260901133600 | 71 | 157 | 0.0 | 0.0 | 0.00 | 0.19 | 0.00 | 97 | 1011.6 |
| 20260901132506 | 71 | 157 | 0.0 | 0.0 | 0.00 | 0.19 | 0.00 | 97 | 1011.5 |
| 20260901132008 | 71 | 157 | 0.0 | 0.0 | 0.00 | 0.19 | 0.00 | 97 | 1011.5 |
| 20260901131446 | 71 | 146 | 0.0 | 0.0 | 0.00 | 0.19 | 0.00 | 97 | 1011.5 |
| 20260901130937 | 71 | 146 | 0.0 | 0.0 | 0.00 | 0.21 | 0.00 | 97 | 1011.5 |
| 20260901130735 | 70 | 146 | 0.0 | 0.0 | 0.00 | 0.24 | 0.00 | 97 | 1011.5 |
| 20260901125918 | 70 | 145 | 0.0 | 0.0 | 0.00 | 0.24 | 0.00 | 97 | 1011.4 |
| 20260901125415 | 70 | 145 | 0.0 | 0.0 | 0.00 | 0.25 | 0.00 | 97 | 1011.4 |
| 20260901124908 | 70 | 145 | 0.0 | 0.0 | 0.00 | 0.26 | 0.00 | 97 | 1011.4 |
| 20260901124711 | 70 | 145 | 0.0 | 0.0 | 0.00 | 0.30 | 0.00 | 97 | 1011.3 |
| 20260901123859 | 70 | 145 | 0.0 | 0.0 | 0.00 | 0.36 | 0.00 | 97 | 1011.3 |
| 20260901123655 | 70 | 145 | 0.0 | 0.0 | 0.00 | 0.38 | 0.00 | 97 | 1011.3 |
| 20260901123149 | 69 | 145 | 0.0 | 0.0 | 0.00 | 0.42 | 0.00 | 97 | 1011.2 |
| 20260901122333 | 69 | 145 | 0.0 | 0.0 | 0.00 | 0.51 | 0.00 | 97 | 1011.2 |
| 20260901121816 | 69 | 128 | 0.0 | 0.0 | 0.00 | 0.52 | 0.00 | 97 | 1011.2 |
| 20260901121308 | 69 | 128 | 0.0 | 0.0 | 0.00 | 0.52 | 0.00 | 97 | 1010.9 |
| 20260901121219 | 69 | 128 | 0.0 | 0.0 | 0.00 | 0.52 | 0.00 | 97 | 1010.9 |
| 20260901121213 | 69 | 128 | 0.0 | 0.0 | 0.00 | 0.52 | 0.00 | 97 | 1010.9 |
| 20260901115748 | 69 | 128 | 0.0 | 0.0 | 0.00 | 0.52 | 0.00 | 97 | 1010.7 |
| 20260901115242 | 69 | 128 | 0.0 | 0.0 | 0.00 | 0.52 | 0.00 | 97 | 1010.7 |
| 20260901114741 | 69 | 128 | 0.0 | 0.0 | 0.00 | 0.52 | 0.00 | 97 | 1010.7 |
| 20260901114549 | 68 | 128 | 0.0 | 0.0 | 0.00 | 0.52 | 0.00 | 97 | 1010.6 |
| 20260901113732 | 68 | 128 | 0.0 | 0.0 | 0.00 | 0.52 | 0.00 | 97 | 1010.6 |
| 20260901113226 | 68 | 128 | 0.0 | 0.0 | 0.00 | 0.52 | 0.00 | 97 | 1010.6 |
| 20260901112714 | 68 | 128 | 0.0 | 0.0 | 0.00 | 0.52 | 0.00 | 97 | 1010.1 |
| 20260901112208 | 67 | 128 | 0.0 | 0.0 | 0.00 | 0.52 | 0.00 | 97 | 1010.1 |
| 20260901111700 | 67 | 128 | 0.0 | 0.0 | 0.00 | 0.52 | 0.00 | 96 | 1010.0 |
| 20260901111200 | 67 | 128 | 0.0 | 0.0 | 0.00 | 0.52 | 0.00 | 96 | 1010.0 |
| 20260901110657 | 67 | 128 | 0.0 | 0.0 | 0.00 | 0.52 | 0.00 | 96 | 1010.0 |
| 20260901110452 | 66 | 128 | 0.0 | 0.0 | 0.00 | 0.52 | 0.00 | 96 | 1010.0 |
| 20260901105647 | 66 | 128 | 0.0 | 0.0 | 0.00 | 0.52 | 0.00 | 96 | 1010.0 |
| 20260901105145 | 66 | 128 | 0.0 | 0.0 | 0.00 | 0.52 | 0.00 | 96 | 1010.0 |
| 20260901104636 | 66 | 128 | 0.0 | 0.0 | 0.00 | 0.52 | 0.00 | 96 | 1010.0 |
| 20260901104131 | 66 | 128 | 0.0 | 0.0 | 0.00 | 0.52 | 0.00 | 96 | 1009.9 |
| 20260901103614 | 66 | 128 | 0.0 | 0.0 | 0.00 | 0.52 | 0.00 | 96 | 1009.9 |
| 20260901103120 | 66 | 128 | 0.0 | 0.0 | 0.00 | 0.52 | 0.00 | 96 | 1009.9 |
| 20260901102854 | 66 | 128 | 0.0 | 0.0 | 0.00 | 0.52 | 0.00 | 95 | 1010.0 |
| 20260901102052 | 66 | 128 | 0.0 | 0.0 | 0.00 | 0.52 | 0.00 | 96 | 1010.0 |
| 20260901101601 | 66 | 128 | 0.0 | 0.0 | 0.00 | 0.52 | 0.00 | 96 | 1010.0 |
| 20260901101029 | 67 | 128 | 0.0 | 0.0 | 0.00 | 0.52 | 0.00 | 96 | 1009.9 |
| 20260901100814 | 67 | 128 | 0.0 | 0.0 | 0.00 | 0.52 | 0.00 | 96 | 1009.9 |
| 20260901100009 | 67 | 128 | 0.0 | 0.0 | 0.00 | 0.52 | 0.00 | 96 | 1009.8 |
| 20260901095518 | 67 | 128 | 0.0 | 0.0 | 0.00 | 0.52 | 0.00 | 96 | 1009.8 |
| 20260901094959 | 66 | 128 | 0.0 | 0.0 | 0.00 | 0.52 | 0.00 | 96 | 1009.8 |
| 20260901094808 | 66 | 128 | 0.0 | 0.0 | 0.00 | 0.52 | 0.00 | 95 | 1009.8 |
| 20260901093956 | 66 | 128 | 0.0 | 0.0 | 0.00 | 0.52 | 0.00 | 95 | 1009.8 |
| 20260901093503 | 67 | 128 | 0.0 | 0.0 | 0.00 | 0.52 | 0.00 | 95 | 1009.8 |
| 20260901092951 | 67 | 128 | 0.0 | 0.0 | 0.00 | 0.52 | 0.00 | 95 | 1009.7 |
| 20260901092442 | 67 | 128 | 0.0 | 0.0 | 0.00 | 0.52 | 0.00 | 95 | 1009.7 |
| 20260901091934 | 67 | 128 | 0.0 | 0.0 | 0.00 | 0.52 | 0.00 | 95 | 1009.7 |
| 20260901091426 | 67 | 128 | 0.0 | 0.0 | 0.00 | 0.52 | 0.00 | 95 | 1009.6 |
| 20260901090929 | 67 | 128 | 0.0 | 0.0 | 0.00 | 0.52 | 0.00 | 95 | 1009.6 |
| 20260901090419 | 67 | 128 | 0.0 | 0.0 | 0.00 | 0.52 | 0.00 | 95 | 1009.6 |
| 20260901085912 | 67 | 128 | 0.0 | 0.0 | 0.00 | 0.52 | 0.00 | 95 | 1009.6 |
| 20260901085404 | 67 | 128 | 0.0 | 0.0 | 0.00 | 0.52 | 0.00 | 95 | 1009.6 |
| 20260901085215 | 67 | 128 | 0.0 | 0.0 | 0.00 | 0.52 | 0.00 | 95 | 1009.6 |
| 20260901084402 | 67 | 128 | 0.0 | 0.0 | 0.00 | 0.52 | 0.00 | 95 | 1009.6 |
| 20260901083846 | 67 | 128 | 0.0 | 0.0 | 0.00 | 0.52 | 0.00 | 95 | 1009.6 |
| 20260901083640 | 67 | 128 | 0.0 | 0.0 | 0.00 | 0.52 | 0.00 | 95 | 1009.6 |
| 20260901082845 | 68 | 128 | 0.0 | 0.0 | 0.00 | 0.52 | 0.00 | 95 | 1009.6 |
| 20260901082335 | 68 | 128 | 0.0 | 0.0 | 0.00 | 0.52 | 0.00 | 95 | 1009.6 |
| 20260901081817 | 68 | 128 | 0.0 | 0.0 | 0.00 | 0.52 | 0.00 | 95 | 1009.6 |
| 20260901081310 | 68 | 128 | 0.0 | 0.0 | 0.00 | 0.52 | 0.00 | 95 | 1009.6 |
| 20260901081107 | 68 | 128 | 0.0 | 0.0 | 0.00 | 0.52 | 0.00 | 95 | 1009.6 |
| 20260901080300 | 68 | 128 | 0.0 | 0.0 | 0.00 | 0.52 | 0.00 | 95 | 1009.6 |
| 20260901075749 | 68 | 128 | 0.0 | 0.0 | 0.00 | 0.52 | 0.00 | 95 | 1009.8 |
| 20260901075246 | 68 | 128 | 0.0 | 0.0 | 0.00 | 0.52 | 0.00 | 95 | 1009.8 |
| 20260901074745 | 68 | 128 | 0.0 | 0.0 | 0.00 | 0.52 | 0.00 | 95 | 1009.8 |
| 20260901074258 | 68 | 128 | 0.0 | 0.0 | 0.00 | 0.52 | 0.00 | 95 | 1009.7 |
| 20260901073723 | 68 | 128 | 0.0 | 0.0 | 0.00 | 0.52 | 0.00 | 94 | 1009.7 |
| 20260901073215 | 68 | 128 | 0.0 | 0.0 | 0.00 | 0.52 | 0.00 | 94 | 1009.7 |
| 20260901072710 | 69 | 128 | 0.0 | 0.0 | 0.00 | 0.52 | 0.00 | 94 | 1009.7 |
| 20260901072323 | 69 | 128 | 0.0 | 0.0 | 0.00 | 0.52 | 0.00 | 94 | 1009.7 |
| 20260901072258 | 69 | 128 | 0.0 | 0.0 | 0.00 | 0.52 | 0.00 | 94 | 1009.7 |
| 20260901071150 | 69 | 128 | 0.0 | 0.0 | 0.00 | 0.52 | 0.00 | 94 | 1009.7 |
| 20260901070949 | 69 | 128 | 0.0 | 0.0 | 0.00 | 0.52 | 0.00 | 94 | 1009.7 |
| 20260901070424 | 69 | 128 | 0.0 | 0.0 | 0.00 | 0.52 | 0.00 | 94 | 1009.7 |
| 20260901065612 | 69 | 128 | 0.0 | 0.0 | 0.00 | 0.52 | 0.00 | 94 | 1009.7 |
| 20260901065106 | 69 | 128 | 0.0 | 0.0 | 0.00 | 0.52 | 0.00 | 94 | 1009.7 |
| 20260901064605 | 69 | 128 | 0.0 | 0.0 | 0.00 | 0.52 | 0.00 | 94 | 1009.7 |
| 20260901064102 | 69 | 128 | 0.0 | 0.0 | 0.00 | 0.52 | 0.00 | 94 | 1009.7 |
| 20260901063543 | 69 | 128 | 0.0 | 0.0 | 0.00 | 0.52 | 0.00 | 94 | 1009.7 |
| 20260901063038 | 70 | 128 | 0.0 | 0.0 | 0.00 | 0.52 | 0.00 | 94 | 1009.9 |
| 20260901062523 | 70 | 128 | 0.0 | 0.0 | 0.00 | 0.52 | 0.00 | 93 | 1009.9 |
| 20260901062010 | 70 | 128 | 0.0 | 0.0 | 0.00 | 0.52 | 0.00 | 94 | 1010.0 |
| 20260901061511 | 70 | 128 | 0.0 | 0.0 | 0.00 | 0.52 | 0.00 | 93 | 1010.0 |
| 20260901061009 | 70 | 128 | 0.0 | 0.0 | 0.00 | 0.52 | 0.00 | 93 | 1010.3 |
| 20260901060511 | 70 | 128 | 0.0 | 0.0 | 0.00 | 0.52 | 0.00 | 93 | 1010.3 |
| 20260901060009 | 70 | 128 | 0.0 | 0.0 | 0.00 | 0.52 | 0.00 | 93 | 1010.3 |
| 20260901055811 | 70 | 128 | 0.0 | 0.0 | 0.00 | 0.52 | 0.00 | 93 | 1010.3 |
| 20260901054949 | 70 | 128 | 0.0 | 0.0 | 0.00 | 0.52 | 0.00 | 93 | 1010.3 |
| 20260901054442 | 70 | 128 | 0.0 | 0.0 | 0.00 | 0.52 | 0.00 | 93 | 1010.3 |
| 20260901054253 | 70 | 128 | 0.0 | 0.0 | 0.00 | 0.52 | 0.00 | 93 | 1010.3 |
| 20260901053429 | 70 | 128 | 0.0 | 0.0 | 0.00 | 0.52 | 0.00 | 92 | 1010.3 |
| 20260901052908 | 70 | 128 | 0.0 | 0.0 | 0.00 | 0.52 | 0.00 | 92 | 1010.3 |
| 20260901052408 | 71 | 128 | 0.0 | 0.0 | 0.00 | 0.52 | 0.00 | 92 | 1010.3 |
| 20260901051905 | 71 | 128 | 0.0 | 0.0 | 0.00 | 0.52 | 0.00 | 92 | 1010.3 |
| 20260901051403 | 71 | 128 | 0.0 | 0.0 | 0.00 | 0.52 | 0.00 | 92 | 1010.4 |
| 20260901050903 | 71 | 128 | 0.0 | 0.0 | 0.00 | 0.52 | 0.00 | 91 | 1010.4 |
| 20260901050356 | 71 | 128 | 0.0 | 0.0 | 0.00 | 0.52 | 0.00 | 91 | 1010.4 |
| 20260901045851 | 71 | 128 | 0.0 | 0.0 | 0.00 | 0.52 | 0.00 | 91 | 1010.4 |
| 20260901045354 | 71 | 128 | 0.0 | 0.0 | 0.00 | 0.52 | 0.00 | 91 | 1010.4 |
| 20260901045125 | 71 | 128 | 0.0 | 0.0 | 0.00 | 0.52 | 0.00 | 91 | 1010.4 |
| 20260901044316 | 71 | 128 | 0.0 | 0.0 | 0.00 | 0.52 | 0.00 | 91 | 1010.7 |
| 20260901043810 | 72 | 128 | 0.0 | 0.0 | 0.00 | 0.52 | 0.00 | 91 | 1010.7 |
| 20260901043606 | 71 | 128 | 0.0 | 0.0 | 0.00 | 0.52 | 0.00 | 91 | 1010.7 |
| 20260901042748 | 72 | 128 | 0.0 | 0.0 | 0.00 | 0.52 | 0.00 | 90 | 1010.7 |
| 20260901042249 | 72 | 128 | 0.0 | 0.0 | 0.00 | 0.52 | 0.00 | 89 | 1010.7 |
| 20260901041744 | 72 | 128 | 0.0 | 0.0 | 0.00 | 0.52 | 0.00 | 89 | 1010.7 |
| 20260901041230 | 72 | 128 | 0.0 | 0.0 | 0.00 | 0.52 | 0.00 | 89 | 1010.5 |
| 20260901040720 | 72 | 128 | 0.0 | 0.0 | 0.00 | 0.52 | 0.00 | 89 | 1010.5 |
| 20260901040221 | 72 | 128 | 0.0 | 0.0 | 0.00 | 0.52 | 0.00 | 89 | 1010.5 |
| 20260901040023 | 73 | 128 | 0.0 | 0.0 | 0.00 | 0.52 | 0.52 | 88 | 1010.7 |
| 20260901035509 | 73 | 128 | 0.0 | 0.0 | 0.00 | 0.52 | 0.52 | 88 | 1010.7 |
| 20260901034705 | 73 | 128 | 0.0 | 0.0 | 0.00 | 0.52 | 0.52 | 88 | 1010.8 |
| 20260901034147 | 73 | 248 | 0.0 | 0.0 | 0.00 | 0.52 | 0.52 | 87 | 1011.0 |
| 20260901033621 | 73 | 248 | 0.0 | 0.0 | 0.00 | 0.52 | 0.52 | 87 | 1011.1 |
| 20260901033118 | 73 | 248 | 0.0 | 0.0 | 0.00 | 0.52 | 0.52 | 87 | 1011.1 |
| 20260901032610 | 74 | 248 | 0.0 | 0.0 | 0.00 | 0.52 | 0.52 | 87 | 1011.1 |
| 20260901032110 | 74 | 248 | 0.0 | 0.0 | 0.00 | 0.52 | 0.52 | 86 | 1011.1 |
| 20260901031609 | 74 | 248 | 0.0 | 0.0 | 0.00 | 0.52 | 0.52 | 86 | 1011.1 |
| 20260901031215 | 75 | 248 | 0.0 | 0.0 | 0.00 | 0.52 | 0.52 | 84 | 1011.1 |
| 20260901031153 | 74 | 248 | 0.0 | 0.0 | 0.00 | 0.52 | 0.52 | 85 | 1011.0 |
| 20260901030416 | 75 | 248 | 0.0 | 0.0 | 0.00 | 0.52 | 0.52 | 84 | 1011.1 |